Monterey, CA

9:44 PM PDT on April 23, 2017 (GMT -0700)
Monterey Peninsula

Weather History for KMRY - January, 2014

Change the Weather History Date:

Saturday, January 11, 2014

  Actual Average Record
Temperature  
Mean Temperature 53 °F 51 °F  
Max Temperature 63 °F 59 °F 77 °F (2009)
Min Temperature 43 °F 42 °F 37 °F (2012)
Degree Days  
Heating Degree Days 12    
Month to date heating degree days 132  
Since 1 July heating degree days 1347  
Cooling Degree Days 0    
Month to date cooling degree days 0  
Year to date cooling degree days 0  
Growing Degree Days 4 (Base 50)    
Moisture  
Dew Point 47 °F    
Average Humidity 71    
Maximum Humidity 93    
Minimum Humidity 48    
Precipitation  
Precipitation T in - 0.43 in (2001)
Month to date precipitation T  
Year to date precipitation T  
Since 1 July precipitation 1.28  
Sea Level Pressure  
Sea Level Pressure 30.26 in    
Wind  
Wind Speed 3 mph (South)    
Max Wind Speed 16 mph    
Max Gust Speed 28 mph    
Visibility 9 miles    
Events Rain    
T = Trace of Precipitation, MM = Missing Value Source: NWS Daily Summary

Daily Weather History Graph

Daily Weather History Graph

Search for Another Location

Airport or City:

Trip Planner

Search our weather history database for the weather conditions in past years. The results will help you decide how hot, cold, wet, or windy it might be!

Date:

Astronomy

Jan. 11, 2014 Rise Set
Actual Time 7:19 AM PST 5:11 PM PST
Civil Twilight 6:51 AM PST 5:39 PM PST
Nautical Twilight 6:19 AM PST 6:11 PM PST
Astronomical Twilight 5:48 AM PST 6:42 PM PST
Moon 1:58 PM PST (1/11) 3:30 AM PST (1/11)
Length of Visible Light 10h 48m
Length of Day
9h 51m
Waxing Gibbous, 84% of the Moon is Illuminated
Jan 11
Waxing Gibbous
Jan 15
Full
Jan 23
Last Quarter
Jan 30
New
Feb 6
First Quarter

Hourly Weather History & Observations

Time (PST) Temp. Windchill Dew Point Humidity Pressure Visibility Wind Dir Wind Speed Gust Speed Precip Events Conditions
12:54 AM 46.0 °F - 42.1 °F 86% 30.22 in 10.0 mi Calm Calm - N/A   Clear
1:54 AM 45.0 °F - 41.0 °F 86% 30.23 in 10.0 mi Calm Calm - N/A   Clear
2:54 AM 45.0 °F 42.6 °F 41.0 °F 86% 30.24 in 10.0 mi East 4.6 mph - N/A   Clear
3:54 AM 44.1 °F 42.5 °F 41.0 °F 89% 30.24 in 10.0 mi East 3.5 mph - N/A   Clear
4:54 AM 45.0 °F - 41.0 °F 86% 30.24 in 10.0 mi Calm Calm - N/A   Clear
5:54 AM 45.0 °F 42.6 °F 42.1 °F 90% 30.25 in 10.0 mi ESE 4.6 mph - N/A   Clear
6:54 AM 46.0 °F - 42.1 °F 86% 30.25 in 10.0 mi Calm Calm - N/A   Clear
7:54 AM 50.0 °F - 46.9 °F 89% 30.30 in 7.0 mi WSW 4.6 mph - N/A   Clear
8:02 AM 50.0 °F - 46.4 °F 87% 30.25 in 7.0 mi WSW 4.6 mph - N/A   Scattered Clouds
8:19 AM 50.0 °F - 46.4 °F 87% 30.26 in 8.0 mi Calm Calm - N/A   Mostly Cloudy
8:54 AM 51.1 °F - 48.0 °F 89% 30.31 in 9.0 mi SE 3.5 mph - N/A   Mostly Cloudy
9:09 AM 51.8 °F - 48.2 °F 88% 30.27 in 9.0 mi Calm Calm - N/A   Scattered Clouds
9:17 AM 51.8 °F - 48.2 °F 88% 30.27 in 10.0 mi Calm Calm - N/A   Scattered Clouds
9:54 AM 54.0 °F - 48.9 °F 83% 30.30 in 10.0 mi East 8.1 mph - N/A   Clear
10:54 AM 63.0 °F - 43.0 °F 48% 30.27 in 10.0 mi Calm Calm - N/A   Clear
11:54 AM 55.0 °F - 48.9 °F 80% 30.26 in 9.0 mi West 6.9 mph - N/A   Clear
12:07 PM 53.6 °F - 48.2 °F 82% 30.23 in 10.0 mi West 11.5 mph 20.7 mph N/A   Partly Cloudy
12:23 PM 53.6 °F - 48.2 °F 82% 30.24 in 10.0 mi West 11.5 mph - N/A   Mostly Cloudy
12:54 PM 53.1 °F - 48.0 °F 83% 30.27 in 10.0 mi West 3.5 mph - N/A   Mostly Cloudy
1:08 PM 53.6 °F - 48.2 °F 82% 30.21 in 10.0 mi Calm Calm - N/A   Scattered Clouds
1:54 PM 55.0 °F - 48.0 °F 77% 30.25 in 10.0 mi Calm Calm - N/A   Scattered Clouds
2:52 PM 57.2 °F - 48.2 °F 72% 30.19 in 10.0 mi Calm Calm - N/A   Mostly Cloudy
2:54 PM 57.0 °F - 48.9 °F 74% 30.23 in 10.0 mi Calm Calm - N/A   Mostly Cloudy
3:54 PM 57.0 °F - 50.0 °F 77% 30.25 in 9.0 mi Calm Calm - N/A   Overcast
4:22 PM 57.2 °F - 51.8 °F 82% 30.22 in 10.0 mi West 6.9 mph - N/A   Overcast
4:43 PM 55.4 °F - 51.8 °F 88% 30.22 in 10.0 mi WSW 3.5 mph - N/A   Overcast
4:54 PM 55.9 °F - 52.0 °F 87% 30.26 in 6.0 mi Calm Calm - 0.00 in Rain Light Rain
5:54 PM 55.0 °F - 52.0 °F 89% 30.27 in 10.0 mi West 4.6 mph - 0.00 in   Overcast
6:54 PM 55.0 °F - 51.1 °F 86% 30.28 in 10.0 mi WSW 4.6 mph - N/A   Overcast
7:41 PM 55.4 °F - 51.8 °F 88% 30.25 in 10.0 mi Calm Calm - N/A   Overcast
7:54 PM 55.0 °F - 51.1 °F 86% 30.28 in 10.0 mi Calm Calm - N/A   Mostly Cloudy
8:08 PM 53.6 °F - 50.0 °F 88% 30.25 in 10.0 mi Calm Calm - N/A   Scattered Clouds
8:28 PM 53.6 °F - 50.0 °F 88% 30.26 in 10.0 mi Calm Calm - N/A   Mostly Cloudy
8:54 PM 52.0 °F - 48.9 °F 89% 30.31 in 10.0 mi SE 4.6 mph - N/A   Mostly Cloudy
9:08 PM 51.8 °F - 48.2 °F 88% 30.26 in 10.0 mi SE 4.6 mph - N/A   Scattered Clouds
9:39 PM 50.0 °F - 48.2 °F 94% 30.29 in 10.0 mi Calm Calm - N/A   Scattered Clouds
9:50 PM 50.0 °F - 48.2 °F 94% 30.29 in 10.0 mi SSE 3.5 mph - N/A   Mostly Cloudy
9:54 PM 51.1 °F - 48.0 °F 89% 30.33 in 10.0 mi SSE 3.5 mph - N/A   Mostly Cloudy
10:45 PM 48.2 °F - 48.2 °F 100% 30.30 in 1.8 mi Calm Calm - N/A   Overcast
10:54 PM 48.9 °F - 46.9 °F 93% 30.33 in 1.8 mi Calm Calm - N/A   Overcast
11:14 PM 46.4 °F - 46.4 °F 100% 30.30 in 1.8 mi Calm Calm - N/A   Mostly Cloudy
11:18 PM 46.4 °F 45.2 °F 46.4 °F 100% 30.30 in 3.0 mi ESE 3.5 mph - N/A   Mostly Cloudy
11:25 PM 46.4 °F 44.3 °F 44.6 °F 93% 30.29 in 9.0 mi East 4.6 mph - N/A   Scattered Clouds
11:54 PM 46.0 °F 43.1 °F 44.1 °F 93% 30.33 in 10.0 mi East 5.8 mph - N/A   Clear